Location: Ch�risy
(50.2331°N, 2.9131°E)
Time: 22:38:14
(UTC+00:00)

Cosmos 1503 Rocket - Pass Details

Date: 17 January 2021
Orbit: 752 x 791 km, 74.0° (Epoch: 01 March)

Event Time Altitude Azimuth Distance (km) Brightness Sun altitude
Rises 18:01:28 0° 208° (SSW) 3,265 7.9 -16.1°
Reaches altitude 10° 18:03:51 10° 211° (SSW) 2,344 7.1 -16.5°
Maximum altitude 18:09:12 73° 296° (WNW) 832 4.3 -17.3°
Enters shadow 18:14:31 10° 21° (NNE) 2,340 6.2 -18.2°
